Tracking 31027 objects as of 19-Jul-2025
HD Live streaming from Space Station
objects crossing your sky now

SL-12 R/B(2)

Track SL-12 R/B(2) now!


NORAD ID: 21536
Int'l Code: 1991-046D
Perigee: 35,541.0 km
Apogee: 35,676.4 km
Inclination: 13.1 °
Period: 1,426.7 minutes
Semi major axis: 41979 km
RCS: 2.304 m2 (large)
Launch date: July 1, 1991
Source: Commonwealth of Independent States (former USSR) (CIS)
Launch site: TYURATAM MISSILE AND SPACE COMPLEX (TTMTR)

Note: This is a ROCKET BODY
Your satellite tracking list
KL-BETA B
Track 1 satellite(s)




NASA's NSSDC Master Catalog

Two Line Element Set (TLE):
1 21536U 91046D   25198.92625512 -.00000105  00000-0  00000-0 0  9991
2 21536  13.1115 340.9669 0016125 235.0889 112.8862  1.00935637120429
Source of the keplerian elements: AFSPC